CW4629 Weather Reports


time (UTC)temp
C
wind
direction
speed
KPH
gust
KPH
rain 1hr
cm
rain 24hr
cm
rain mn
cm
humidity
%
barometer
mb
20260509074430 21 326 1.6 3.2 0.00 0.00 0.00 18 1013.3
20260509073428 22 14 3.2 6.4 0.00 0.00 0.00 17 1013.3
20260509072429 22 20 4.8 6.4 0.00 0.00 0.00 17 1013.2
20260509070429 23 323 1.6 3.2 0.00 0.00 0.00 16 1013.1
20260509065429 23 342 4.8 6.4 0.00 0.00 0.00 16 1012.9
20260509064527 23 22 3.2 6.4 0.00 0.00 0.00 16 1013.0
20260509063546 23 292 4.8 6.4 0.00 0.00 0.00 16 1012.9
20260509062627 24 303 9.7 12.9 0.00 0.00 0.00 15 1012.8
20260509061646 25 297 8.0 11.3 0.00 0.00 0.00 14 1012.9
20260509060627 24 301 12.9 17.7 0.00 0.00 0.00 16 1012.9
20260509060527 24 306 11.3 17.7 0.00 0.00 0.00 17 1012.7
20260509055534 24 339 4.8 9.7 0.00 0.00 0.00 18 1012.7
20260509054535 25 336 4.8 6.4 0.00 0.00 0.00 16 1012.7
20260509053548 24 333 4.8 6.4 0.00 0.00 0.00 17 1012.5
20260509052631 24 225 0.0 0.0 0.00 0.00 0.00 18 1012.6
20260509051635 24 315 0.0 0.0 0.00 0.00 0.00 19 1012.8
20260509050648 25 315 0.0 0.0 0.00 0.00 0.00 18 1012.6
20260509044749 25 25 4.8 8.0 0.00 0.00 0.00 18 1012.4
20260509043834 25 202 0.0 1.6 0.00 0.00 0.00 17 1012.3
20260509042834 26 360 0.0 0.0 0.00 0.00 0.00 16 1012.2
20260509041834 27 360 0.0 1.6 0.00 0.00 0.00 15 1012.0
20260509035933 28 23 3.2 6.4 0.00 0.00 0.00 12 1012.0
20260509033933 30 249 6.4 9.7 0.00 0.00 0.00 11 1011.7
20260509032034 30 230 6.4 9.7 0.00 0.00 0.00 10 1011.5
20260509031131 30 234 8.0 12.9 0.00 0.00 0.00 10 1011.3
20260509031048 30 235 11.3 16.1 0.00 0.00 0.00 10 1011.3
20260509030049 30 233 8.0 12.9 0.00 0.00 0.00 10 1011.3
20260509025133 31 217 8.0 11.3 0.00 0.00 0.00 10 1011.2
20260509022331 32 214 9.7 14.5 0.00 0.00 0.00 9 1010.7
20260509021332 32 222 11.3 17.7 0.00 0.00 0.00 9 1010.7
20260509020430 33 224 9.7 12.9 0.00 0.00 0.00 8 1010.7
20260509015433 33 237 6.4 12.9 0.00 0.00 0.00 6 1010.3
20260509014448 33 259 6.4 12.9 0.00 0.00 0.00 5 1010.4
20260509013431 33 247 8.0 11.3 0.00 0.00 0.00 6 1010.4
20260509012448 34 260 11.3 20.9 0.00 0.00 0.00 6 1010.4
20260509011533 34 254 12.9 19.3 0.00 0.00 0.00 7 1010.4
20260509010631 34 248 9.7 17.7 0.00 0.00 0.00 7 1010.6
20260509010549 34 263 8.0 11.3 0.00 0.00 0.00 7 1010.5
20260509005631 35 254 8.0 16.1 0.00 0.00 0.00 7 1010.3
20260509003647 35 246 9.7 14.5 0.00 0.00 0.00 7 1010.5
20260509002730 35 291 8.0 11.3 0.00 0.00 0.00 8 1010.4
20260509001749 35 42 3.2 9.7 0.00 0.00 0.00 8 1010.6
20260509000733 35 198 9.7 12.9 0.00 0.00 0.00 9 1010.7
20260508235732 35 260 1.6 8.0 0.00 0.00 0.00 7 1010.7
20260508235631 35 243 3.2 6.4 0.00 0.00 0.00 7 1010.9
20260508234632 35 209 9.7 16.1 0.00 0.00 0.00 7 1011.1
20260508234549 35 220 14.5 20.9 0.00 0.00 0.00 8 1011.1
20260508233633 35 197 12.9 19.3 0.00 0.00 0.00 8 1011.1
20260508231631 35 263 11.3 17.7 0.00 0.00 0.00 7 1011.2
20260508230632 35 224 14.5 20.9 0.00 0.00 0.00 8 1011.4
20260508225650 35 216 8.0 14.5 0.00 0.00 0.00 9 1011.6
20260508224633 35 222 12.9 19.3 0.00 0.00 0.00 9 1011.5
20260508223730 34 281 8.0 20.9 0.00 0.00 0.00 9 1011.6
20260508222748 34 247 12.9 20.9 0.00 0.00 0.00 8 1012.0
20260508221732 34 215 16.1 29.0 0.00 0.00 0.00 8 1012.0
20260508220747 34 209 12.9 17.7 0.00 0.00 0.00 9 1012.3
20260508215731 34 210 12.9 17.7 0.00 0.00 0.00 9 1012.4
20260508214831 34 248 6.4 12.9 0.00 0.00 0.00 8 1012.5
20260508213847 34 246 14.5 20.9 0.00 0.00 0.00 9 1012.4
20260508212848 34 216 19.3 30.6 0.00 0.00 0.00 9 1012.8
20260508211847 34 279 14.5 20.9 0.00 0.00 0.00 10 1013.0
20260508210849 33 249 8.0 12.9 0.00 0.00 0.00 9 1013.0
20260508205938 34 257 11.3 17.7 0.00 0.00 0.00 9 1013.0
20260508203832 33 279 12.9 20.9 0.00 0.00 0.00 9 1013.4
20260508202847 33 294 19.3 29.0 0.00 0.00 0.00 8 1013.5
20260508200948 34 135 1.6 8.0 0.00 0.00 0.00 9 1013.7
20260508200033 35 67 3.2 6.4 0.00 0.00 0.00 9 1013.8
20260508195048 34 1 4.8 9.7 0.00 0.00 0.00 9 1013.9
20260508194048 33 180 0.0 1.6 0.00 0.00 0.00 11 1014.1
20260508193130 33 129 3.2 9.7 0.00 0.00 0.00 10 1014.1
20260508192149 32 159 6.4 9.7 0.00 0.00 0.00 12 1014.3
20260508191230 32 142 4.8 8.0 0.00 0.00 0.00 12 1014.4
20260508191130 32 121 4.8 6.4 0.00 0.00 0.00 12 1014.4
20260508190134 32 108 6.4 12.9 0.00 0.00 0.00 12 1014.7
20260508185230 32 226 3.2 6.4 0.00 0.00 0.00 11 1015.1
20260508184230 31 198 3.2 4.8 0.00 0.00 0.00 12 1015.2
20260508183231 31 202 0.0 1.6 0.00 0.00 0.00 12 1015.4
20260508181330 30 204 1.6 4.8 0.00 0.00 0.00 13 1015.8
20260508180332 30 198 6.4 8.0 0.00 0.00 0.00 13 1016.0
20260508175331 29 223 0.0 3.2 0.00 0.00 0.00 14 1016.0
20260508174347 29 134 3.2 8.0 0.00 0.00 0.00 15 1016.2
20260508173432 28 135 0.0 1.6 0.00 0.00 0.00 15 1016.4
20260508172530 27 194 4.8 8.0 0.00 0.00 0.00 17 1016.5
20260508172449 27 141 0.0 1.6 0.00 0.00 0.00 16 1016.6
20260508171546 27 180 3.2 4.8 0.00 0.00 0.00 16 1016.5
20260508170631 27 115 1.6 6.4 0.00 0.00 0.00 18 1016.5
20260508165630 26 157 1.6 4.8 0.00 0.00 0.00 18 1016.7
20260508165547 26 154 6.4 9.7 0.00 0.00 0.00 18 1016.7
20260508164531 26 142 1.6 4.8 0.00 0.00 0.00 19 1016.7
20260508163549 26 247 0.0 1.6 0.00 0.00 0.00 19 1016.8
20260508162531 25 202 4.8 8.0 0.00 0.00 0.00 19 1016.9
20260508161546 25 223 1.6 3.2 0.00 0.00 0.00 19 1017.0
20260508160531 24 167 1.6 4.8 0.00 0.00 0.00 20 1017.2
20260508160431 24 159 1.6 6.4 0.00 0.00 0.00 20 1017.0
20260508155431 23 202 1.6 4.8 0.00 0.00 0.00 20 1017.2
20260508154431 23 202 3.2 4.8 0.00 0.00 0.00 21 1017.1
20260508153433 23 157 0.0 0.0 0.00 0.00 0.00 20 1017.1
20260508152530 23 135 0.0 3.2 0.00 0.00 0.00 20 1017.2
20260508151533 24 236 0.0 3.2 0.00 0.00 0.00 20 1017.2
20260508145631 21 270 0.0 0.0 0.00 0.00 0.00 22 1017.2
20260508144631 20 270 0.0 0.0 0.00 0.00 0.00 24 1017.3
20260508142647 19 337 0.0 0.0 0.00 0.00 0.00 30 1017.4
20260508140732 17 337 0.0 0.0 0.00 0.00 0.00 35 1017.4
20260508135730 16 337 0.0 0.0 0.00 0.00 0.00 40 1017.3
20260508134746 15 337 0.0 1.6 0.00 0.00 0.00 39 1017.2
20260508133749 15 22 0.0 0.0 0.00 0.00 0.00 41 1017.2
20260508131732 12 22 0.0 0.0 0.00 0.00 0.00 48 1016.8
20260508130830 11 22 0.0 0.0 0.00 0.00 0.00 47 1016.6
20260508125829 11 22 0.0 0.0 0.00 0.00 0.00 47 1016.4
20260508124831 12 22 0.0 0.0 0.00 0.00 0.00 43 1016.3
20260508123930 12 315 0.0 0.0 0.00 0.00 0.00 44 1016.1
20260508122848 12 22 0.0 0.0 0.00 0.00 0.00 41 1016.1
20260508121030 12 22 0.0 0.0 0.00 0.00 0.00 45 1016.1
20260508114149 13 90 0.0 0.0 0.00 0.00 0.00 37 1016.0
20260508113132 13 90 0.0 0.0 0.00 0.00 0.00 38 1015.9
20260508112230 13 90 0.0 0.0 0.00 0.00 0.00 34 1016.0
20260508111232 13 180 0.0 0.0 0.00 0.00 0.00 38 1015.9
20260508110231 13 180 0.0 0.0 0.00 0.00 0.00 41 1015.9
20260508110146 13 180 0.0 0.0 0.00 0.00 0.00 41 1015.7
20260508105146 13 180 0.0 0.0 0.00 0.00 0.00 38 1015.8
20260508104230 13 180 0.0 0.0 0.00 0.00 0.00 37 1015.9
20260508103232 14 167 0.0 0.0 0.00 0.00 0.00 35 1015.8
20260508102330 15 157 0.0 0.0 0.00 0.00 0.00 34 1015.7
20260508101331 15 157 0.0 0.0 0.00 0.00 0.00 32 1015.5
20260508095331 16 157 0.0 0.0 0.00 0.00 0.00 29 1015.6
20260508094331 16 157 0.0 0.0 0.00 0.00 0.00 28 1015.5
20260508093429 16 45 3.2 6.4 0.00 0.00 0.00 28 1015.4
20260508093329 16 45 3.2 3.2 0.00 0.00 0.00 29 1015.3
20260508092331 16 360 0.0 0.0 0.00 0.00 0.00 31 1015.4
20260508091331 16 22 0.0 0.0 0.00 0.00 0.00 29 1015.4
20260508090330 16 67 3.2 4.8 0.00 0.00 0.00 33 1015.2
20260508085346 16 202 0.0 0.0 0.00 0.00 0.00 33 1015.3
20260508084431 16 157 0.0 0.0 0.00 0.00 0.00 30 1015.4
20260508083529 17 94 0.0 0.0 0.00 0.00 0.00 30 1015.3
20260508083430 16 28 0.0 0.0 0.00 0.00 0.00 30 1015.4
20260508081431 17 360 0.0 0.0 0.00 0.00 0.00 29 1015.3
20260508080447 17 360 0.0 1.6 0.00 0.00 0.00 30 1015.4
20260508075430 17 360 0.0 0.0 0.00 0.00 0.00 31 1015.3